Regional Weather Roundup
Issued by NWS

Current Version | Previous Version | Text Only | Print | Product List | Glossary On
Versions: 1 2 3 4 5 6 7 8 9 10 11 12 13 14 15 16 17 18 19 20 21 22 23 24 25 26 27 28 29 30 31 32 33 34 35 36 37 38 39 40 41 42 43 44 45 46 47 48 49 50
000
ASHW40 PHFO 221243
RWRHI

WEATHER ROUNDUP FOR HAWAII
NATIONAL WEATHER SERVICE HONOLULU HI
200 AM HST WED FEB 22 2017

THIS IS AN AUTOMATED REPORT THAT HAS NOT BEEN QUALITY CONTROLLED.

NOTE..."FAIR" INDICATES FEW OR NO CLOUDS BELOW 12,000 FEET WITH NO
SIGNIFICANT WEATHER AND/OR OBSTRUCTIONS TO VISIBILITY.

* - THESE SITES REPORT LIMITED FIELDS

HIZ001>004-221300-
KAUAI-NIIHAU-

CITY           SKY/WX    TMP DP  RH WIND       PRES   REMARKS
LIHUE APT      MOCLDY    69  61  75 NE15G29   30.26F
PORT ALLEN*      N/A     68 N/A N/A NE13G28     N/A
POIPU*           N/A     70 N/A N/A NE8G20      N/A
PRINCEVILLE*     N/A     70 N/A N/A E13G20      N/A
KOKOLE POINT*  NOT AVBL
MOLOAA DAIRY*    N/A     68  59  73 E3G15       N/A
WAIMEA HTS*      N/A     64  54  68 NW3G13      N/A
PUU OPAE*      NOT AVBL
PUU LUA*       NOT AVBL
MAKAHA RIDGE*    N/A     61  55  82 NE3G13      N/A
$$

HIZ005>011-221300-
OAHU-

CITY           SKY/WX    TMP DP  RH WIND       PRES   REMARKS
HONOLULU       PTCLDY    72  58  61 NE15      30.21F
KALAELOA       PTCLDY    69  58  67 VRB3      30.23F
KANEOHE MCB    NOT AVBL
WHEELER FIELD  PTCLDY    64  57  76 CALM      30.22F
BELLOWS*         N/A    N/A N/A N/A NE23G29     N/A
KAHUKU*          N/A    N/A N/A N/A NE10G23     N/A
WHEELER*         N/A    N/A N/A N/A W3          N/A
WAIANAE HARBOR   N/A    N/A N/A N/A NE9G21      N/A
DILLINGHAM*    NOT AVBL
KAHUKU TRN*      N/A     68  57  68 W10G20      N/A
KAWAILOA*        N/A     64  59  82 E13G26      N/A
KII*             N/A     72  61  68 E21G26      N/A
MAKUA RANGE*     N/A     70  57  64 W15G26      N/A
OAHU FOREST NW   N/A     64  55  72 CALM        N/A
SCHOFIELD BRK*   N/A     64  57  77 MISG        N/A
SCHOFIELD S*   NOT AVBL
WAIANAE VLY*     N/A     66  55  68 VRB12G29    N/A
KUAOKALA*        N/A     66  -2   6 NE23G35     N/A
HONOULIUULI*   NOT AVBL
MOKUOLOE IS*   NOT AVBL
PALEHUA*         N/A     61  55  82 NE16G25     N/A
WAIAWA PHB*    NOT AVBL
$$

HIZ012>013-221300-
MOLOKAI-

CITY           SKY/WX    TMP DP  RH WIND       PRES   REMARKS
MOLOKAI AIRPT  CLEAR     71  60  68 NE13G29   30.21F
KALAUPAPA      NOT AVBL
MAKAPULAPAI*     N/A     72  61  68 E21G30      N/A
MOLOKAI 1*       N/A     59  52  77 NE7G20      N/A
PUU ALII*        N/A     52  51  96 N3G14       N/A
$$

HIZ016-221300-
KAHOOLAWE-

CITY           SKY/WX    TMP DP  RH WIND       PRES   REMARKS
KAHOOLAWE*     NOT AVBL
HAKIOAWA*        N/A     62  55  79 MISG      30.59F
HONOKANAIA*      N/A     68  54  60 NE13G28   30.15S
KANELOA*         N/A     68  57  68 NE12G32   30.26S
KEALIALALO*    NOT AVBL
LUA MAKIKA*    NOT AVBL
$$

HIZ014>015-221300-
LANAI-

CITY           SKY/WX    TMP DP  RH WIND       PRES   REMARKS
LANAI CITY       N/A     65  58  78 NE20G31   30.22F
LANAI 1*       NOT AVBL
$$

HIZ017>028-221300-
MAUI-

CITY           SKY/WX    TMP DP  RH WIND       PRES   REMARKS
KAHULUI        LGT RAIN  69  61  75 NE12      30.21F
KAPALUA-W MAUI NOT AVBL
HANA AIRPORT   MOCLDY    72  61  68 NE13      30.25F
HANA*            N/A     73 N/A N/A NE13G20     N/A
HALEAKALA SUMM   N/A     34  14  44 SE3         N/A
MAALAEA BAY*     N/A     70 N/A N/A VRB21G29    N/A
HALEAKALA*     NOT AVBL
KAUPO GAP*       N/A    N/A N/A N/A N21G30      N/A
KULA 1*          N/A    N/A N/A N/A E5          N/A
$$

HIZ023>026-221300-
BIG ISLAND OF HAWAII COAST AND LOWER SLOPES-

CITY           SKY/WX    TMP DP  RH WIND       PRES   REMARKS
KAILUA KONA    CLOUDY    70  62  76 N7        30.14F
HILO           CLOUDY    72  59  63 NE7       30.22F
HONOKAA*         N/A     63 N/A N/A VRB1        N/A
KAWAIHAE MWT*    N/A     75 N/A N/A NE5         N/A
KAWAIHAE*        N/A     75 N/A N/A SW3       30.14S
SOUTH POINT*     N/A     66 N/A N/A N26G40      N/A
UPOLU AIRPORT* NOT AVBL
KAMUELA*       PTSUNNY   57  55  94 NE25      30.23F
HAKALAU*         N/A     45  45 100 SW3         N/A
KALOKO-HONOKO*   N/A     72  61  68 NE3       30.13F
PALI 2*          N/A     57  52  82 S22G35      N/A
KEALAKOMO*       N/A     72  59  64 N17G24      N/A
KAUPULEHU*       N/A     64  57  77 VRB8        N/A
KAPAPALA*        N/A     54  52  93 N3G9        N/A
LOWER KAHUKU*    N/A     55  54  94 N3G13       N/A
PUHE CS*         N/A     73  57  56 W3G14       N/A
PUHO CS*         N/A     71  60  67 E3          N/A
PTA KEAMUKU*     N/A     55  52  88 CALM        N/A
WAIKOLOA*        N/A     66  54  63 E20G35      N/A
$$

HIZ027>028-221300-
BIG ISLAND OF HAWAII INTERIOR AND SUMMMITS-

CITY           SKY/WX    TMP DP  RH WIND       PRES   REMARKS
BRADSHAW FIELD CLEAR     45  40  81 SE8       30.40F
MK VISITOR CEN   N/A     41  14  33 N7          N/A
MAUNA KEA*       N/A     21   1  42 CALM        N/A
MAUNA LOA*       N/A    N/A N/A N/A MISG        N/A
MAUNA LOA 1*   NOT AVBL
PTA KIPUKA*      N/A     46  43  87 SE8         N/A
PTA RANGE 17*    N/A     66  59  77 SE18G29     N/A
PTA WEST*        N/A     68  55  64 SE3G14      N/A
NENE CABIN*      N/A    N/A N/A N/A NE5         N/A
AHUMOA*          N/A    N/A N/A N/A E7          N/A
PTA PORTABLE*  NOT AVBL
PUU MALI*        N/A     48  36  61 E15G22      N/A
$$

HIC003-221300-
NORTHWEST ISLANDS-

CITY           SKY/WX    TMP DP  RH WIND       PRES   REMARKS
MIDWAY ISLAND  MOCLDY    72  68  88 S15       30.18S
MIDWAY NOS*      N/A     72 N/A N/A MISG      30.15F
FRENCH FRIGATE NOT AVBL
$$

PHZ110>124-180-221300-
BUOY REPORTS

STATION/POSITION TIME  TEMP    WIND        PRES    WAVE   SWELL
                       AIR SEA DIR/SP/G            HT/PER HT/DIR
                 (UTC) (F)     (DEG/KT/KT) (MB)    (FT/S) (FT/D)
BUOY 51001       1220   70 72   70/ 16/ 19 1026.7
BUOY 51101       1150   71 72   70/ 16/ 21 1027.2F   7/ 7   3/ 40
BUOY 51100       NOT AVBL
BUOY 51002       1220   76 77   50/ 23/ 31 1018.6
BUOY 51003       1150   75 77   60/ 19/ 23 1020.8F   8/ 8   3/250
BUOY 51004       1150      77   40/ 25/ 29 1018.7F  10/ 8   3
BARBERS PT BUOY  NOT AVBL
WAIMEA BAY BUOY  1202      74                N/A     7/10   2/360
KAILUA BAY BUOY  1204      75                N/A     8/ 7   2/ 20
LANAI BUOY       1215      76                N/A     2/ 9
BARBERS PT 2     NOT AVBL
PAUWELA MAUI     1209      75                N/A     8/ 7   2/350
HILO             1212      76                N/A     8/ 8   2/360
KANEOHE BAY BUOY 1206      75                N/A     8/ 7   2/ 10
HANALEI KAUAI    1222      76                N/A     8/ 7   2/350
KAHULUI HARBOR   1212   71 74   60/ 10/ 18 1023.1
HONOLULU HARBOR  1212   72 75   80/  5/ 13 1023.6
KILO NALU        NOT AVBL
HILO HARBOR      1212   73 75   40/ 10/ 14 1022.9
MOKUOLOE         1136   73 73   80/ 13/ 17 1023.9F
NAWILIWILI       1212   71 75   40/ 15/ 22 1024.0
WHOTS BUOY       NOT AVBL
BUOY 51028       NOT AVBL
$$

......................KEY........................................
  SKY/WX - SKY CONDITIONS/PRESENT WEATHER
  TMP    - TEMPERATURE IN FAHRENHEIT
  DWPT   - DEWPOINT IN FAHRENHEIT
  RH     - RELATIVE HUMIDITY IN PERCENT
  WIND   - DIRECTION AND SPEED /MPH FOR ISLANDS...KTS FOR BUOYS/
  PRES   - MEAN SEA LEVEL PRESSURE IN INCHES OF HG
  VSB    - VISIBILITY IN MILES
  HX     - HEAT INDEX
  WCI    - WIND CHILL INDEX
  VRB    - VARIABLE WIND DIRECTION
  N/A    - NOT AVAILABLE




USA.gov is the U.S. government's official web portal to all federal, state and local government web resources and services.